Flag for U.S.A. Weather past 2 weeks in Daytona Beach, Florida, U.S.A.

Now
72 °F

Light rain. Overcast.


Feels Like: 70 °F
Forecast: 73 / 82 °F
Wind: 3 mph from South

Location: Daytona Beach Regional Airport

Current Time: Sep 19, 2014 at 4:37:33 PM

Latest Report: Sep 19, 2014 at 3:53 PM


Visibility: 9 mi

Pressure: 29.96 "Hg

Humidity: 87%

Dew point: 68 °F

Location of Daytona BeachLocation

Historic Weather in Daytona Beach — Graph

°F

Daytona Beach temperature yesterday

Maximum temperature yesterday: 88 °F (at 12:53 PM)
Minimum temperature yesterday: 71 °F (at 2:53 AM)
Average temperature yesterday: 79 °F

Past Weeks' High & Low Weather Summary

 TemperatureHumidityPressure
High88 °F (Sep 8, 2:53 PM)100% (Sep 5, 6:53 PM)30.17 "Hg (Sep 5, 6:53 PM)
Low71 °F (Sep 18, 2:53 AM)57% (Sep 8, 2:53 PM)29.87 "Hg (Sep 17, 4:53 PM)
Average79 °F83%30.03 "Hg
* Reported Sep 4 2:53 PM — Sep 19 2:53 PM, Daytona Beach, Weather by CustomWeather, © 2014

Note: Actual official high and low records may vary slightly from our data, if they occured in-between our weather recording intervals... More about our weather records

Advertising

Daytona Beach weather history for previous 24 hours

 ConditionsComfort  
Time TempWeatherWind HumidityBarometerVisibility
2:53 PM
Sep 19
75 °FLight rain. Cloudy.12 mph82%29.98 "Hg6 mi
1:53 PM84 °FOvercast.9 mph70%29.98 "Hg10 mi
12:53 PM84 °FOvercast.8 mph70%29.99 "Hg10 mi
11:53 AM84 °FOvercast.7 mph67%30.00 "Hg10 mi
10:53 AM84 °FOvercast.6 mph70%29.99 "Hg10 mi
9:53 AM82 °FOvercast.5 mph77%29.98 "Hg10 mi
8:53 AM77 °FOvercast.No wind94%29.98 "Hg10 mi
7:53 AM77 °FOvercast.3 mph88%29.96 "Hg10 mi
6:53 AM75 °FMostly cloudy.No wind94%29.95 "Hg10 mi
5:53 AM75 °FOvercast.No wind94%29.94 "Hg10 mi
4:53 AM74 °FPassing clouds.3 mph97%29.93 "Hg10 mi
3:53 AM75 °FPassing clouds.No wind94%29.93 "Hg10 mi
2:53 AM75 °FPassing clouds.No wind94%29.93 "Hg10 mi
1:53 AM75 °FPassing clouds.No wind94%29.94 "Hg10 mi
12:53 AM74 °FPassing clouds.No wind94%29.95 "Hg10 mi
11:53 PM
Sep 18
76 °FPassing clouds.No wind91%29.95 "Hg10 mi
10:53 PM78 °FPassing clouds.No wind84%29.96 "Hg10 mi
9:53 PM81 °FPassing clouds.3 mph74%29.95 "Hg10 mi
8:53 PM81 °FPartly cloudy.No wind74%29.93 "Hg10 mi
7:53 PM81 °FBroken clouds.3 mph72%29.92 "Hg10 mi
6:53 PM82 °FPartly sunny.5 mph72%29.89 "Hg10 mi
5:53 PM83 °FScattered clouds.9 mph65%29.89 "Hg10 mi
4:53 PM84 °FScattered clouds.12 mph72%29.89 "Hg10 mi
Weather by CustomWeather, © 2014

See weather overviewHow to use our weather pages